Weather in Dibba

United Arab Emirates     25°37′20″N   56°16′23″E
temp.,
°C
wind,
m/s
gust,
m/s
humid.,
%
clouds,
%
prec.,
mm/h
press.,
hPa
HPBL,
m
7 may, fri
fri701:00+28w2249100 0.0 100845
04:00+27ne2253100 0.0 100814
07:00+27ne2256100 0.0 1010162
10:00+30e2245100 0.0 1011591
13:00+35ese552875 0.0 10092583
16:00+34ene14280 0.0 10072155
19:00+32ene01380 0.0 1009420
22:00+29ene22530 0.0 1010303
8 may, sat
sat801:00+27nne12580 0.0 1009100
04:00+27ese22520 0.0 100820
07:00+28ese11510 0.0 1010181
10:00+33ese22290 0.0 10101134
13:00+35e44260 0.0 10082566
16:00+34ene33311 0.0 10061968
19:00+31ese22440 0.0 1007512
22:00+30sse11450 0.0 1008269
9 may, sun
sun901:00+30w22410 0.0 100734
04:00+28wnw11400 0.0 100612
07:00+29w22330 0.0 1008143
10:00+35wsw45150 0.0 10081262
13:00+38w77130 0.0 10062502
16:00+36wnw810130 0.0 10051872
19:00+30wnw59290 0.0 1006595
22:00+28w47330 0.0 1007279
10 may, mon
mon1001:00+27w46410 0.0 1006118
04:00+25wsw44440 0.0 100655
07:00+27w34350 0.0 1007200
10:00+33w44160 0.0 1007976
13:00+36wnw46130 0.0 10051772
16:00+35wnw77170 0.0 10041430
19:00+29w79370 0.0 1005509
22:00+27w610500 0.0 1006313
11 may, tue
tue1101:00+26w55440 0.0 1005109
04:00+26w22410 0.0 100523
07:00+28wsw23330 0.0 1006123
10:00+34nw11180 0.0 1007787
13:00+37wsw01140 0.0 10062422
16:00+38wnw44170 0.0 10042083
19:00+33w34220 0.0 1005359
22:00+31w33280 0.0 100698